When you browse on this site, cookies collect data to enhance your experience and personalize the content and advertising you see.
Visit our Privacy Policy to learn more. By continuing to use the site, you agree to this use of cookies and data.
  • In Portugal
  • List of Countries
  • For 7 days
  • Water Temperature
  • Satellite Maps
  • Weather Map
  • Weather Widgets
  • user-avatar
    Login

    Hourly Weather Livingstone

    Today, 25 May, Saturday

    Time Temperature Precipitation Wind Pressure Humidity
    00:00 +18°C° 0 mm 1 mps 686 mmHg 53%
    01:00 +16°C° 0 mm 1 mps 686 mmHg 56%
    02:00 +15°C° 0 mm 2 mps 686 mmHg 59%
    03:00 +15°C° 0 mm 2 mps 686 mmHg 64%
    04:00 +15°C° 0 mm 2 mps 686 mmHg 69%
    05:00 +14°C° 0 mm 2 mps 686 mmHg 74%
    06:00 +15°C° 0 mm 2 mps 686 mmHg 72%
    07:00 +16°C° 0 mm 3 mps 687 mmHg 71%
    08:00 +17°C° 0 mm 3 mps 688 mmHg 66%
    09:00 +20°C° 0 mm 3 mps 688 mmHg 58%
    10:00 +22°C° 0 mm 3 mps 688 mmHg 50%
    11:00 +26°C° 0 mm 3 mps 688 mmHg 42%
    12:00 +26°C° 0 mm 4 mps 688 mmHg 39%
    13:00 +27°C° 0 mm 4 mps 687 mmHg 36%
    14:00 +27°C° 0 mm 4 mps 687 mmHg 33%
    15:00 +27°C° 0 mm 3 mps 687 mmHg 35%
    16:00 +26°C° 0 mm 3 mps 686 mmHg 36%
    17:00 +25°C° 0 mm 3 mps 686 mmHg 38%
    18:00 +24°C° 0 mm 2 mps 686 mmHg 43%
    19:00 +21°C° 0 mm 2 mps 686 mmHg 49%
    20:00 +19°C° 0 mm 2 mps 686 mmHg 54%
    21:00 +19°C° 0 mm 1 mps 686 mmHg 57%
    22:00 +19°C° 0 mm 1 mps 686 mmHg 60%
    23:00 +18°C° 0 mm 1 mps 686 mmHg 63%

    Tomorrow, 26 May, Sunday

    Time Temperature Precipitation Wind Pressure Humidity
    00:00 +18°C° 0 mm 1 mps 686 mmHg 65%
    01:00 +16°C° 0 mm 1 mps 686 mmHg 68%
    02:00 +16°C° 0 mm 1 mps 686 mmHg 70%
    03:00 +15°C° 0 mm 1 mps 686 mmHg 71%
    04:00 +14°C° 0 mm 1 mps 686 mmHg 72%
    05:00 +14°C° 0 mm 2 mps 686 mmHg 73%
    06:00 +15°C° 0 mm 2 mps 686 mmHg 68%
    07:00 +15°C° 0 mm 2 mps 686 mmHg 63%
    08:00 +16°C° 0 mm 3 mps 687 mmHg 58%
    09:00 +19°C° 0 mm 3 mps 687 mmHg 51%
    10:00 +22°C° 0 mm 3 mps 688 mmHg 43%
    11:00 +25°C° 0 mm 3 mps 688 mmHg 36%
    12:00 +26°C° 0 mm 3 mps 687 mmHg 33%
    13:00 +27°C° 0 mm 3 mps 687 mmHg 30%
    14:00 +28°C° 0 mm 3 mps 686 mmHg 28%
    15:00 +27°C° 0 mm 3 mps 686 mmHg 29%
    16:00 +27°C° 0 mm 3 mps 685 mmHg 30%
    17:00 +26°C° 0 mm 3 mps 685 mmHg 30%
    18:00 +24°C° 0 mm 2 mps 685 mmHg 37%
    19:00 +21°C° 0 mm 2 mps 685 mmHg 43%
    20:00 +18°C° 0 mm 2 mps 685 mmHg 50%
    21:00 +19°C° 0 mm 1 mps 685 mmHg 52%
    22:00 +18°C° 0 mm 1 mps 685 mmHg 55%
    23:00 +16°C° 0 mm 1 mps 685 mmHg 58%

    Day after tomorrow, 27 May, Monday

    Time Temperature Precipitation Wind Pressure Humidity
    00:00 +16°C° 0 mm 1 mps 685 mmHg 59%
    01:00 +16°C° 0 mm 1 mps 685 mmHg 60%
    02:00 +15°C° 0 mm 1 mps 685 mmHg 62%
    03:00 +15°C° 0 mm 1 mps 685 mmHg 64%
    04:00 +14°C° 0 mm 2 mps 685 mmHg 67%
    05:00 +13°C° 0 mm 2 mps 685 mmHg 70%
    06:00 +14°C° 0 mm 2 mps 685 mmHg 66%
    07:00 +15°C° 0 mm 2 mps 686 mmHg 62%
    08:00 +16°C° 0 mm 3 mps 686 mmHg 57%
    09:00 +19°C° 0 mm 3 mps 687 mmHg 50%
    10:00 +22°C° 0 mm 3 mps 687 mmHg 43%
    11:00 +26°C° 0 mm 3 mps 687 mmHg 35%
    12:00 +27°C° 0 mm 3 mps 687 mmHg 32%
    13:00 +28°C° 0 mm 3 mps 686 mmHg 28%
    14:00 +29°C° 0 mm 3 mps 685 mmHg 24%
    15:00 +28°C° 0 mm 3 mps 685 mmHg 25%
    16:00 +27°C° 0 mm 3 mps 684 mmHg 26%
    17:00 +27°C° 0 mm 3 mps 684 mmHg 28%
    18:00 +24°C° 0 mm 3 mps 684 mmHg 34%
    19:00 +21°C° 0 mm 2 mps 684 mmHg 40%
    20:00 +18°C° 0 mm 2 mps 684 mmHg 47%
    21:00 +18°C° 0 mm 2 mps 684 mmHg 50%
    22:00 +18°C° 0 mm 1 mps 684 mmHg 53%
    23:00 +16°C° 0 mm 1 mps 684 mmHg 56%

    28 May, Tuesday

    Time Temperature Precipitation Wind Pressure Humidity
    00:00 +16°C° 0 mm 1 mps 684 mmHg 57%
    01:00 +16°C° 0 mm 1 mps 684 mmHg 59%
    02:00 +15°C° 0 mm 1 mps 684 mmHg 60%
    03:00 +15°C° 0 mm 1 mps 684 mmHg 62%
    04:00 +14°C° 0 mm 2 mps 684 mmHg 64%
    05:00 +14°C° 0 mm 2 mps 684 mmHg 66%
    06:00 +15°C° 0 mm 2 mps 684 mmHg 64%
    07:00 +16°C° 0 mm 2 mps 685 mmHg 62%
    08:00 +16°C° 0 mm 2 mps 686 mmHg 59%
    09:00 +19°C° 0 mm 2 mps 686 mmHg 51%
    10:00 +24°C° 0 mm 3 mps 686 mmHg 42%
    11:00 +27°C° 0 mm 3 mps 687 mmHg 33%
    12:00 +28°C° 0 mm 3 mps 686 mmHg 30%
    13:00 +29°C° 0 mm 3 mps 685 mmHg 27%
    14:00 +30°C° 0 mm 2 mps 685 mmHg 24%
    15:00 +29°C° 0 mm 3 mps 684 mmHg 25%
    16:00 +28°C° 0 mm 3 mps 684 mmHg 27%
    17:00 +27°C° 0 mm 3 mps 684 mmHg 28%
    18:00 +25°C° 0 mm 3 mps 684 mmHg 34%
    19:00 +22°C° 0 mm 3 mps 684 mmHg 40%
    20:00 +20°C° 0 mm 2 mps 684 mmHg 46%
    21:00 +19°C° 0 mm 2 mps 684 mmHg 49%
    22:00 +18°C° 0 mm 2 mps 684 mmHg 52%
    23:00 +18°C° 0 mm 1 mps 684 mmHg 55%

    29 May, Wednesday

    Time Temperature Precipitation Wind Pressure Humidity
    00:00 +18°C° 0 mm 1 mps 684 mmHg 55%
    01:00 +16°C° 0 mm 1 mps 684 mmHg 56%
    02:00 +16°C° 0 mm 1 mps 683 mmHg 56%
    03:00 +15°C° 0 mm 1 mps 683 mmHg 57%
    04:00 +15°C° 0 mm 1 mps 683 mmHg 58%
    05:00 +15°C° 0 mm 1 mps 683 mmHg 60%
    06:00 +15°C° 0 mm 1 mps 684 mmHg 59%
    07:00 +16°C° 0 mm 1 mps 685 mmHg 58%
    08:00 +18°C° 0 mm 1 mps 685 mmHg 58%
    09:00 +20°C° 0 mm 2 mps 686 mmHg 49%
    10:00 +24°C° 0 mm 2 mps 686 mmHg 40%
    11:00 +27°C° 0 mm 3 mps 687 mmHg 32%
    12:00 +28°C° 0 mm 2 mps 686 mmHg 28%
    13:00 +29°C° 0 mm 2 mps 685 mmHg 25%
    14:00 +30°C° 0 mm 2 mps 684 mmHg 22%
    15:00 +29°C° 0 mm 2 mps 684 mmHg 23%
    16:00 +29°C° 0 mm 2 mps 684 mmHg 24%
    17:00 +28°C° 0 mm 3 mps 683 mmHg 25%
    18:00 +25°C° 0 mm 2 mps 684 mmHg 31%
    19:00 +23°C° 0 mm 2 mps 684 mmHg 36%
    20:00 +20°C° 0 mm 2 mps 684 mmHg 41%
    21:00 +19°C° 0 mm 2 mps 684 mmHg 44%
    22:00 +18°C° 0 mm 2 mps 684 mmHg 47%
    23:00 +18°C° 0 mm 1 mps 684 mmHg 50%

    30 May, Thursday

    Time Temperature Precipitation Wind Pressure Humidity
    00:00 +18°C° 0 mm 1 mps 684 mmHg 50%
    01:00 +16°C° 0 mm 1 mps 683 mmHg 51%
    02:00 +16°C° 0 mm 1 mps 683 mmHg 51%
    03:00 +16°C° 0 mm 1 mps 683 mmHg 52%
    04:00 +15°C° 0 mm 1 mps 683 mmHg 53%
    05:00 +15°C° 0 mm 2 mps 683 mmHg 53%
    06:00 +16°C° 0 mm 1 mps 684 mmHg 53%
    07:00 +16°C° 0 mm 1 mps 684 mmHg 53%
    08:00 +18°C° 0 mm 1 mps 685 mmHg 52%
    09:00 +20°C° 0 mm 2 mps 685 mmHg 45%
    10:00 +24°C° 0 mm 2 mps 686 mmHg 38%
    11:00 +27°C° 0 mm 2 mps 686 mmHg 31%
    12:00 +29°C° 0 mm 2 mps 686 mmHg 27%
    13:00 +30°C° 0 mm 1 mps 685 mmHg 23%
    14:00 +32°C° 0 mm 1 mps 684 mmHg 20%
    15:00 +31°C° 0 mm 1 mps 684 mmHg 21%
    16:00 +30°C° 0 mm 2 mps 684 mmHg 22%
    17:00 +28°C° 0 mm 2 mps 683 mmHg 23%
    18:00 +26°C° 0 mm 2 mps 683 mmHg 28%
    19:00 +24°C° 0 mm 2 mps 683 mmHg 33%
    20:00 +20°C° 0 mm 2 mps 684 mmHg 38%
    21:00 +19°C° 0 mm 2 mps 684 mmHg 42%
    22:00 +19°C° 0 mm 1 mps 683 mmHg 46%
    23:00 +19°C° 0 mm 1 mps 683 mmHg 49%
    Show more